Home   Weather   Syktyvkar   Past weeks

Flag for Russia Past Weather in Syktyvkar, Russia — Yesterday and Last 2 Weeks

Now
-9 °F

Scattered clouds.


Feels Like: -19 °F
Forecast: -1 / 8 °F
Wind: 3 mph from South

Location: Syktyvkar Airport

Current Time: Dec 8, 2016 at 2:54:24 pm

Latest Report: Dec 8, 2016 at 2:00 pm


Visibility: N/A

Pressure: 29.53 "Hg

Humidity: 84%

Dew Point: -13 °F

Location of SyktyvkarLocation

Past Weather in Syktyvkar — Graph

°F

Syktyvkar Temperature Yesterday

Maximum temperature yesterday: -13 °F (at 2:30 am)
Minimum temperature yesterday: -22 °F (at 7:30 am)
Average temperature yesterday: -18 °F

High & Low Weather Summary for the Past Weeks

 TemperatureHumidityPressure
High27 °F (Nov 23, 3:30 pm)100% (Nov 24, 2:00 am)30.01 "Hg (Nov 24, 2:00 am)
Low-26 °F (Dec 1, 1:00 am)71% (Nov 30, 11:30 am)29.33 "Hg (Nov 25, 6:00 am)
Average0 °F85%29.71 "Hg
* Reported Nov 23 1:00 pm — Dec 8 1:30 pm, Syktyvkar, Weather by CustomWeather, © 2016

Note: Actual official high and low records may vary slightly from our data, if they occured in-between our weather recording intervals... More about our weather records

Advertising

Syktyvkar Weather History for the Previous 24 Hours

Scroll right to see more
 ConditionsComfort  
Time TempWeatherWind HumidityBarometerVisibility
1:30 pm
Thu, Dec 8
-8 °FLight snow. Overcast.6 mph84%29.53 "Hg6 mi
1:00 pm-8 °FLight snow. Overcast.6 mph84%29.56 "HgN/A
12:30 pm-8 °FOvercast.8 mph77%29.56 "HgN/A
12:00 pm-9 °FPartly sunny.6 mph84%29.56 "HgN/A
11:30 am-9 °FPartly sunny.3 mph84%29.59 "HgN/A
11:00 am-8 °FPartly sunny.6 mph77%29.59 "HgN/A
10:30 am-11 °FPartly sunny.3 mph84%29.59 "HgN/A
10:00 am-11 °FLight snow. Overcast.6 mph84%29.59 "Hg6 mi
9:30 am-11 °FLight snow. Overcast.6 mph84%29.62 "Hg6 mi
9:00 am-11 °FLight snow. Overcast.6 mph84%29.62 "Hg6 mi
8:30 am-11 °FOvercast.6 mph76%29.62 "Hg6 mi
8:00 am-13 °FOvercast.6 mph83%29.62 "HgN/A
7:30 am-13 °FOvercast.6 mph83%29.65 "HgN/A
7:00 am-13 °FLight snow. Overcast.6 mph83%29.65 "HgN/A
6:30 am-13 °FOvercast.6 mph83%29.65 "HgN/A
6:00 am-15 °FLight snow. Overcast.6 mph83%29.65 "HgN/A
5:00 am-15 °FPartly cloudy.6 mph76%29.68 "HgN/A
4:30 am-17 °FPassing clouds.3 mph83%29.68 "HgN/A
4:00 am-17 °FPassing clouds.3 mph83%29.68 "HgN/A
3:30 am-17 °FLight snow. Passing clouds.3 mph83%29.71 "HgN/A
3:00 am-17 °FLight snow. Passing clouds.3 mph83%29.71 "HgN/A
2:30 am-17 °FPassing clouds.3 mph83%29.71 "HgN/A
2:00 am-15 °FPassing clouds.6 mph76%29.71 "HgN/A
1:30 am-15 °FPassing clouds.3 mph76%29.71 "HgN/A
1:00 am-15 °FPassing clouds.3 mph76%29.71 "HgN/A
12:30 am-15 °FLight snow. Passing clouds.3 mph76%29.74 "HgN/A
12:00 am-15 °FPassing clouds.3 mph76%29.74 "HgN/A
11:30 pm
Wed, Dec 7
-17 °FPassing clouds.3 mph83%29.74 "Hg6 mi
11:00 pm-17 °FPassing clouds.3 mph76%29.77 "HgN/A
10:30 pm-17 °FPassing clouds.3 mph76%29.77 "HgN/A
10:00 pm-17 °FPassing clouds.3 mph76%29.77 "HgN/A
9:00 pm-17 °FPassing clouds.6 mph83%29.77 "HgN/A
8:00 pm-18 °FPassing clouds.3 mph83%29.77 "HgN/A
7:30 pm-18 °FPassing clouds.3 mph75%29.77 "HgN/A
7:00 pm-18 °FPassing clouds.3 mph75%29.80 "HgN/A
6:00 pm-18 °FPassing clouds.3 mph75%29.80 "HgN/A
5:30 pm-18 °FPassing clouds.3 mph83%29.80 "Hg6 mi
5:00 pm-18 °FPassing clouds.3 mph75%29.80 "Hg6 mi
4:30 pm-18 °FPassing clouds.3 mph75%29.80 "Hg6 mi
4:00 pm-18 °FPassing clouds.3 mph83%29.80 "HgN/A
3:30 pm-18 °FPassing clouds.3 mph83%29.83 "HgN/A
3:00 pm-17 °FPassing clouds.3 mph83%29.80 "Hg6 mi
2:30 pm-20 °FPassing clouds.1 mph83%29.80 "Hg6 mi
2:00 pm-18 °FPassing clouds.1 mph83%29.80 "Hg6 mi
Weather by CustomWeather, © 2016

See weather overviewHow to use our weather pages